Location: B?jaj?g
(11.7167°N, 92.6667°E)
Time: 16:47:17
(UTC+00:00)

Cosmos 1842 - Pass Details

Date: 18 September 2020
Orbit: 522 x 536 km, 82.5° (Epoch: 30 October)

Event Time Altitude Azimuth Distance (km) Brightness Sun altitude
Rises 12:49:41 0° 3° (N) 2,640 6.8 -15.9°
Reaches altitude 10° 12:51:51 10° 8° (N) 1,754 5.9 -16.4°
Maximum altitude 12:55:36 52° 85° (E) 655 3.3 -17.3°
Enters shadow 12:57:59 21° 155° (SSE) 1,224 4.8 -17.9°
